Location: Chakepay
(13.3931°S, 72.1925°W)
Time: 17:53:32
(UTC+00:00)

CZ-4B R/B - Pass Details

Date: 15 November 2019
Orbit: 486 x 653 km, 97.8° (Epoch: 15 December)

Event Time Altitude Azimuth Distance (km) Brightness Sun altitude
Rises 09:03:14 0° 6° (N) 2,622 6.1 -16.3°
Reaches altitude 10° 09:05:17 10° 3° (N) 1,763 5.2 -15.8°
Maximum altitude 09:09:03 65° 281° (W) 603 2.7 -15.0°
Drops below altitude 10° 09:13:04 10° 198° (SSW) 1,878 5.6 -14.1°
Sets 09:15:18 0° 195° (SSW) 2,810 6.5 -13.6°
